Biloxi, MS

2:58 PM CST on January 21, 2018 (GMT -0600)
Keesler Air Force Base

Weather History for KBIX - December, 2014

Change the Weather History Date:

Sunday, December 14, 2014

  Actual Average Record
Temperature  
Mean Temperature 54 °F -  
Max Temperature 63 °F 63 °F 76 °F (1948)
Min Temperature 44 °F 48 °F 25 °F (2010)
Degree Days  
Heating Degree Days 12    
Growing Degree Days 4 (Base 50)    
Moisture  
Dew Point 47 °F    
Average Humidity 89    
Maximum Humidity 100    
Minimum Humidity 54    
Precipitation  
Precipitation 0.00 in - - ()
Sea Level Pressure  
Sea Level Pressure 30.14 in    
Wind  
Wind Speed 3 mph (NE)    
Max Wind Speed 9 mph    
Max Gust Speed -    
Visibility 8 miles    
Events      
Averages and records for this station are not official NWS values.
T = Trace of Precipitation, MM = Missing Value Source: NWS Daily Summary

Daily Weather History Graph

Daily Weather History Graph

Search for Another Location

Airport or City:

Trip Planner

Search our weather history database for the weather conditions in past years. The results will help you decide how hot, cold, wet, or windy it might be!

Date:

Astronomy

Dec. 14, 2014 Rise Set
Actual Time 6:44 AM CST 4:56 PM CST
Civil Twilight 6:17 AM CST 5:22 PM CST
Nautical Twilight 5:47 AM CST 5:52 PM CST
Astronomical Twilight 5:18 AM CST 6:22 PM CST
Moon No Moon Rise 12:01 PM CST (12/14)
Length of Visible Light 11h 05m
Length of Day
10h 12m
Waning Gibbous, 48% of the Moon is Illuminated
Dec 14
Waning Gibbous
Dec 21
New
Dec 28
First Quarter
Jan 4
Full
Jan 13
Last Quarter

Hourly Weather History & Observations

Time (CST) Temp. Windchill Dew Point Humidity Pressure Visibility Wind Dir Wind Speed Gust Speed Precip Events Conditions
12:08 AM 50.0 °F - 44.6 °F 82% 30.19 in 8.0 mi NE 4.6 mph - N/A   Clear
12:13 AM 50.0 °F - 42.8 °F 76% 30.19 in 6.0 mi NE 4.6 mph - N/A   Haze
12:23 AM 50.0 °F - 44.6 °F 82% 30.18 in 7.0 mi NNE 3.5 mph - N/A   Clear
12:28 AM 48.2 °F - 44.6 °F 87% 30.18 in 6.0 mi NE 3.5 mph - N/A   Haze
12:43 AM 48.2 °F - 42.8 °F 82% 30.18 in 8.0 mi ENE 2.3 mph - N/A   Clear
12:48 AM 50.0 °F - 44.6 °F 82% 30.18 in 10.0 mi ENE 3.5 mph - N/A   Clear
12:53 AM 48.2 °F - 42.8 °F 82% 30.17 in 7.0 mi ENE 2.3 mph - N/A   Clear
12:58 AM 48.2 °F - 42.8 °F 82% 30.18 in 6.0 mi ENE 2.3 mph - N/A   Haze
1:18 AM 46.4 °F 45.2 °F 42.8 °F 87% 30.17 in 5.0 mi NE 3.5 mph - N/A   Haze
1:23 AM 46.4 °F - 42.8 °F 87% 30.17 in 6.0 mi NE 2.3 mph - N/A   Clear
1:28 AM 48.2 °F - 42.8 °F 82% 30.17 in 9.0 mi NNE 2.3 mph - N/A   Clear
1:33 AM 48.2 °F - 44.6 °F 87% 30.17 in 10.0 mi Variable 2.3 mph - N/A   Clear
1:58 AM 48.2 °F - 43.5 °F 84% 30.18 in 10.0 mi NE 3.5 mph - N/A   Clear
2:03 AM 48.2 °F - 42.8 °F 82% 30.17 in 8.0 mi Variable 5.8 mph - N/A   Clear
2:08 AM 46.4 °F 44.3 °F 42.8 °F 87% 30.17 in 6.0 mi NE 4.6 mph - N/A   Clear
2:13 AM 46.4 °F 45.2 °F 42.8 °F 87% 30.17 in 8.0 mi NNE 3.5 mph - N/A   Clear
2:18 AM 48.2 °F - 42.8 °F 82% 30.17 in 10.0 mi NNE 3.5 mph - N/A   Clear
2:28 AM 46.4 °F 44.3 °F 42.8 °F 87% 30.17 in 9.0 mi NNE 4.6 mph - N/A   Clear
2:33 AM 48.2 °F - 42.8 °F 82% 30.17 in 10.0 mi NNE 4.6 mph - N/A   Clear
2:38 AM 48.2 °F - 42.8 °F 82% 30.16 in 9.0 mi NE 6.9 mph - N/A   Clear
2:48 AM 46.4 °F - 42.8 °F 87% 30.17 in 9.0 mi North 2.3 mph - N/A   Clear
2:58 AM 46.9 °F - 43.3 °F 87% 30.18 in 10.0 mi NNE 3.5 mph - N/A   Clear
3:13 AM 46.4 °F 43.5 °F 42.8 °F 87% 30.16 in 8.0 mi NE 5.8 mph - N/A   Clear
3:23 AM 46.4 °F 45.2 °F 42.8 °F 87% 30.16 in 10.0 mi NNE 3.5 mph - N/A   Clear
3:58 AM 45.9 °F - 43.0 °F 90% 30.17 in 10.0 mi NNE 1.2 mph - N/A   Clear
4:13 AM 44.6 °F 41.4 °F 42.8 °F 93% 30.16 in 8.0 mi NE 5.8 mph - N/A   Clear
4:38 AM 44.6 °F 41.4 °F 42.8 °F 93% 30.16 in 6.0 mi NE 5.8 mph - N/A   Clear
4:48 AM 44.6 °F 42.2 °F 42.8 °F 93% 30.16 in 7.0 mi NNE 4.6 mph - N/A   Clear
4:58 AM 44.8 °F - 43.0 °F 93% 30.17 in 10.0 mi NE 1.2 mph - N/A   Clear
5:58 AM 45.3 °F - 43.2 °F 92% 30.19 in 10.0 mi Variable 2.3 mph - N/A   Clear
6:58 AM 45.0 °F 42.6 °F 43.2 °F 93% 30.19 in 10.0 mi NNE 4.6 mph - N/A   Clear
7:58 AM 47.5 °F - 44.8 °F 90% 30.21 in 7.0 mi NE 5.8 mph - N/A   Clear
8:58 AM 53.1 °F - 45.1 °F 74% 30.23 in 10.0 mi East 4.6 mph - N/A   Clear
9:58 AM 58.1 °F - 45.9 °F 64% 30.21 in 10.0 mi ESE 5.8 mph - N/A   Clear
10:58 AM 61.9 °F - 46.0 °F 56% 30.19 in 10.0 mi ENE 6.9 mph - N/A   Clear
11:58 AM 63.9 °F - 47.1 °F 54% 30.16 in 10.0 mi Variable 5.8 mph - N/A   Clear
12:58 PM 62.1 °F - 48.7 °F 62% 30.13 in 10.0 mi SSW 6.9 mph - N/A   Clear
1:58 PM 62.4 °F - 48.9 °F 61% 30.11 in 10.0 mi SSW 6.9 mph - N/A   Clear
2:58 PM 61.2 °F - 49.3 °F 65% 30.11 in 10.0 mi SW 9.2 mph - N/A   Clear
3:58 PM 59.5 °F - 50.4 °F 72% 30.11 in 10.0 mi WSW 9.2 mph - N/A   Clear
4:58 PM 55.9 °F - 50.9 °F 83% 30.10 in 10.0 mi WSW 3.5 mph - N/A   Clear
5:58 PM 54.5 °F - 51.4 °F 89% 30.10 in 10.0 mi West 2.3 mph - N/A   Clear
6:58 PM 52.7 °F - 52.5 °F 99% 30.10 in 10.0 mi Calm Calm - N/A   Clear
7:58 PM 51.4 °F - 50.0 °F 95% 30.10 in 10.0 mi ENE 2.3 mph - N/A   Clear
8:53 PM 50.0 °F - 50.0 °F 100% 30.10 in 8.0 mi Calm Calm - N/A   Clear
8:58 PM 50.4 °F - 50.4 °F 100% 30.11 in 9.0 mi Calm Calm - N/A   Clear
9:03 PM 51.8 °F - 51.8 °F 100% 30.10 in 10.0 mi Calm Calm - N/A   Clear
9:23 PM 51.8 °F - 51.8 °F 100% 30.09 in 4.0 mi ENE 1.2 mph - N/A   Clear
9:28 PM 51.8 °F - 51.8 °F 100% 30.09 in 3.0 mi ENE 1.2 mph - N/A   Clear
9:33 PM 51.8 °F - 51.8 °F 100% 30.09 in 5.0 mi Calm Calm - N/A   Clear
9:38 PM 51.8 °F - 51.8 °F 100% 30.09 in 8.0 mi Calm Calm - N/A   Clear
9:53 PM 51.8 °F - 51.8 °F 100% 30.10 in 4.0 mi NE 1.2 mph - N/A   Clear
9:58 PM 51.6 °F - 51.6 °F 100% 30.11 in 4.0 mi Calm Calm - N/A   Clear
10:03 PM 50.0 °F - 50.0 °F 100% 30.10 in 7.0 mi Calm Calm - N/A   Clear
10:13 PM 50.0 °F - 50.0 °F 100% 30.10 in 7.0 mi West 2.3 mph - N/A   Clear
10:28 PM 50.0 °F - 50.0 °F 100% 30.11 in 6.0 mi WNW 2.3 mph - N/A   Clear
10:33 PM 50.0 °F - 50.0 °F 100% 30.10 in 7.0 mi NNW 2.3 mph - N/A   Clear
10:43 PM 51.8 °F - 51.8 °F 100% 30.11 in 10.0 mi NW 2.3 mph - N/A   Clear
10:53 PM 51.8 °F - 51.8 °F 100% 30.10 in 9.0 mi Calm Calm - N/A   Clear
10:58 PM 51.8 °F - 51.8 °F 100% 30.11 in 8.0 mi Calm Calm - N/A   Clear
11:13 PM 50.0 °F - 50.0 °F 100% 30.10 in 2.5 mi Calm Calm - N/A   Clear
11:18 PM 50.0 °F - 50.0 °F 100% 30.10 in 1.8 mi Calm Calm - N/A   Clear
11:23 PM 50.0 °F - 50.0 °F 100% 30.09 in 4.0 mi Calm Calm - N/A   Clear
11:28 PM 50.0 °F - 50.0 °F 100% 30.09 in 8.0 mi North 1.2 mph - N/A   Clear
11:33 PM 50.0 °F - 50.0 °F 100% 30.09 in 2.0 mi NE 2.3 mph - N/A   Clear
11:43 PM 50.0 °F - 50.0 °F 100% 30.09 in 3.0 mi NE 1.2 mph - N/A   Clear
11:48 PM 48.2 °F - 48.2 °F 100% 30.09 in 1.5 mi Calm Calm - N/A   Clear
11:53 PM 50.0 °F - 50.0 °F 100% 30.09 in 2.0 mi Calm Calm - N/A   Clear
11:58 PM 50.0 °F - 50.0 °F 100% 30.11 in 3.0 mi Calm Calm - N/A   Clear